Location: Pinhead Observatory
(34.4473°N, 118.1985°W)
Time: 15:23:10
(UTC-07:00)

Daily predictions for brighter satellites

Satellite Brightness Start Highest point End
(mag) Time Altitude Azimuth Time Altitude Azimuth Time Altitude Azimuth
Atlas Centaur 2 2.3 18:29:53 10° WSW 18:34:09 54° S 18:39:34 10° ESE
Cosmos 1703 4.2 18:31:25 10° NNE 18:34:46 26° ENE 18:38:04 10° SE
Cosmos 1500 Rocket 4.4 18:32:18 10° NNE 18:36:06 28° ENE 18:39:49 10° SE
Meteor 1-28 Rocket 3.4 18:35:34 10° N 18:39:21 77° WNW 18:43:05 10° SSW
Cosmos 1726 4.1 18:41:55 10° E 18:42:36 10° E 18:43:17 10° ENE
SPOT 3 Rocket 4.0 18:39:31 10° SE 18:44:22 41° ENE 18:49:13 10° N
Cosmos 1908 4.1 18:43:31 10° SSE 18:46:55 29° E 18:50:19 10° NNE
Cosmos 2366 rocket 4.0 18:40:57 10° S 18:47:11 85° E 18:53:23 10° N
Cosmos 2056 Rocket 3.5 18:42:10 10° NNW 18:47:29 82° ENE 18:52:41 10° SSE
Cosmos 1400 Rocket 2.9 18:47:33 10° N 18:51:31 54° E 18:55:23 10° SSE
CZ-4 R/B 2.1 18:47:59 10° S 18:52:09 62° W 18:56:19 10° NNW
GENESIS II 4.2 18:48:29 10° SSW 18:52:26 85° ESE 18:56:26 10° NNE
SL-16 R/B 2.5 18:46:52 10° NNW 18:52:32 75° WSW 18:58:11 10° SSE
BREEZE-M DEB (TANK) 4.2 18:54:09 10° W 18:55:56 16° NW 18:57:23 10° N
MOS 1 4.3 18:50:27 10° SSE 18:56:02 68° ENE 19:01:42 10° N
Cosmos 44 3.7 18:54:33 10° S 18:58:33 34° ESE 19:02:28 10° NE
Cosmos 2098 Rocket 4.2 18:55:33 10° SE 18:58:54 24° E 19:02:55 10° NNE
COSMO-SKYMED 1 2.6 18:54:32 10° NNE 18:58:54 88° E 19:03:14 10° SSW
METEOR-M 4.1 18:56:47 10° SSE 19:02:06 74° ENE 19:07:26 10° N
USA 267 3.9 18:57:09 10° ENE 19:03:03 36° SE 19:08:55 10° S
Cosmos 1452 Rocket 3.8 19:00:10 10° N 19:05:12 45° ENE 19:10:12 10° SE
NOAA 12 4.2 19:05:45 10° SSE 19:10:55 57° ENE 19:16:07 10° N
SL-24 R/B - RUBIN 2 3.9 19:10:04 10° NNW 19:14:38 44° NE 19:17:58 15° SE
Cosmos 1626 2.8 19:12:45 10° NNW 19:16:27 58° W 19:20:06 10° S
Abrixas 2.5 19:15:11 10° SSW 19:17:11 33° SE 19:17:11 33° SE
Cosmos 44 Rocket 3.2 19:13:30 10° SSW 19:18:06 57° ESE 19:22:38 10° NE
YAOGAN 1 3.9 19:14:57 10° S 19:19:04 44° W 19:23:12 10° NNW
Tiangong 1 3.1 19:17:22 10° W 19:19:27 20° SW 19:21:31 10° SSE
ISS -0.8 19:20:09 10° W 19:21:59 14° SW 19:23:48 10° SSW
Cosmos 1821 Rocket 4.1 19:18:17 10° SSE 19:24:10 52° E 19:30:11 10° NNE
DELTA 2 R/B (1) 3.8 19:20:27 10° WNW 19:25:57 58° N 19:29:03 26° E
Cosmos 1934 Rocket 4.3 19:23:46 10° SSE 19:29:41 43° E 19:35:38 10° NNE
BREEZE-M DEB (TANK) 3.7 19:29:46 10° WNW 19:31:07 15° NNW 19:32:00 13° N
Cosmos 2239 Rocket 4.4 19:25:54 10° S 19:31:55 61° E 19:37:58 10° NNE
Aureole 2 4.3 19:29:20 10° N 19:32:27 59° ENE 19:33:51 31° SE
Iridium 4 Rocket 3.6 19:27:06 10° S 19:32:27 73° E 19:38:14 10° N
Cosmos 2360 Rocket 2.2 19:28:13 10° NNW 19:33:54 86° WSW 19:39:33 10° SSE
COSMOS 2428 3.1 19:28:53 10° N 19:34:12 40° ENE 19:36:35 27° ESE
Cosmos 1315 Rocket 2.8 19:31:01 10° N 19:35:06 86° W 19:39:12 10° S
Cosmos 2333 Rocket 3.5 19:32:59 10° N 19:37:01 22° NE 19:37:01 22° NE
Cosmos 2151 4.1 19:33:48 10° NNW 19:37:53 45° W 19:41:56 10° SSW
Cosmos 2219 3.1 19:33:38 10° S 19:39:20 71° ESE 19:45:04 10° NNE
Cosmos 1048 Rocket 3.9 19:35:33 10° SSW 19:40:42 89° WNW 19:45:51 10° NNE
Cosmos 2322 Rocket 4.4 19:36:31 10° NW 19:41:07 27° WSW 19:45:44 10° SSW
FengYun 1-2 T 4.1 19:42:24 10° SSE 19:47:50 65° ENE 19:53:16 10° N
Cosmos 1420 Rocket 3.9 19:45:13 10° NNW 19:50:33 89° ENE 19:55:49 10° SSE
Thor Agena Rocket 3.7 19:46:34 10° N 19:51:39 73° WNW 19:56:39 10° SSW
APEX 4.3 19:49:56 10° SW 19:53:07 35° WNW 19:54:36 21° NNW
SJ-6B 4.1 19:56:48 27° N 19:56:48 27° N 19:58:39 10° N
Delta 2 Rocket 3.0 19:51:40 10° W 19:55:02 67° NW 19:55:02 67° NW
RESURS DK-1 3.2 19:51:48 10° NW 19:55:47 49° WSW 19:59:33 11° S
FENGYUN 3A 4.3 19:51:46 10° S 19:57:02 57° W 20:02:22 10° NNW
Cosmos 2123 Rocket 4.1 19:51:05 10° N 19:57:07 50° E 19:59:24 35° SE
Cosmos 1605 Rocket 4.0 19:52:33 10° SSE 19:58:24 49° E 20:04:13 10° NNE
Cosmos 2221 3.8 19:54:27 10° SSW 19:58:31 40° W 20:02:37 10° N
CZ-4C R/B 2.2 19:56:13 10° SW 20:01:16 71° WNW 20:05:23 19° NNE
ALOS 3.5 19:57:38 10° S 20:02:02 42° W 20:06:29 10° NNW
Cosmos 2322 4.2 19:58:54 10° NNW 20:04:31 59° WSW 20:10:05 10° S
FALCON 9 R/B 3.9 20:03:13 10° SW 20:04:55 13° SSW 20:06:16 12° S
BREEZE-M DEB (TANK) 4.5 19:59:33 10° WNW 20:06:33 25° NNW 20:08:00 22° NNE
BREEZE-M DEB (TANK) 4.2 20:05:21 10° WNW 20:06:01 17° W 20:06:01 17° W
ASTRO E2 3.4 20:04:19 10° W 20:07:42 46° SSW 20:07:42 46° SSW
MOS 1-B Rocket 4.0 20:09:42 50° NE 20:09:42 50° NE 20:14:56 10° N
Resurs 01 Rocket 4.1 20:15:09 11° N 20:15:09 11° N 20:15:19 10° N
Cosmos 921 Rocket 4.5 20:07:14 10° NNW 20:11:19 37° W 20:15:18 10° SSW
Cosmos 1726 3.7 20:14:05 10° SSW 20:17:29 34° W 20:20:53 10° NNW
Atlas Centaur 2 2.8 20:18:06 10° W 20:22:58 43° SSW 20:23:20 43° S
Cosmos 2219 Rocket 2.5 20:17:37 10° NNW 20:21:58 50° NNE 20:21:58 50° NNE
Centaur D AC-29 2.5 20:17:11 10° WSW 20:23:40 33° SSW 20:23:43 33° SSW
BREEZE-M DEB (TANK) 4.2 20:15:33 10° NW 20:27:36 41° NNE 20:27:53 40° NNE
Gbstr 26 Del rocket 4.5 20:23:10 10° NW 20:27:25 41° N 20:27:25 41° N
H-2A R/B 4.4 20:29:48 32° WSW 20:30:03 32° W 20:33:35 10° NNW
USA 267 3.7 20:43:58 39° NNE 20:46:07 55° NW 20:52:26 10° WSW
Cosmos 2237 Rocket 4.0 20:48:58 10° NNW 20:50:58 22° N 20:50:58 22° N
Cosmos 2227 Rocket 4.1 20:52:22 10° SSW 20:54:02 20° SSW 20:54:02 20° SSW
Cosmos 2333 Rocket 4.0 21:16:22 10° NW 21:19:03 27° NW 21:19:03 27° NW
